Location: Newark
(45.2500°N, 7.5833°E)
Time: 21:31:15
(UTC+00:00)

First-Move - Pass Details

Date: 29 February 2020
Orbit: 576 x 669 km, 97.6° (Epoch: 09 April)

Event Time Altitude Azimuth Distance (km) Brightness Sun altitude
Rises 05:12:45 0° 17° (NNE) 3,021 ? -10.7°
Reaches altitude 10° 05:15:04 10° 23° (NNE) 2,098 ? -10.3°
Maximum altitude 05:19:32 49° 99° (E) 847 ? -9.5°
Drops below altitude 10° 05:23:52 10° 174° (S) 2,044 ? -8.7°
Sets 05:26:06 0° 180° (S) 2,936 ? -8.3°
